Tracking 29040 objects as of 16-Jun-2024
HD Live streaming from Space Station
objects crossing your sky now

STARLINK-1349

Track STARLINK-1349 now!
10-day predictions
STARLINK-1349 is classified as:


NORAD ID: 45587
Int'l Code: 2020-025BJ
Perigee: 553.1 km
Apogee: 555.6 km
Inclination: 53.1 °
Period: 95.6 minutes
Semi major axis: 6925 km
RCS: Unknown
Launch date: April 22, 2020
Source: United States (US)
Launch site: AIR FORCE EASTERN TEST RANGE (AFETR)
Your satellite tracking list
Your tracking list is empty




NASA's NSSDC Master Catalog

Two Line Element Set (TLE):
1 45587U 20025BJ  24168.35792481  .00002911  00000-0  21421-3 0  9994
2 45587  53.0542  30.7692 0001810 107.8899 252.2287 15.06410899230353
Source of the keplerian elements: AFSPC